| time (UTC) | temp F | wind direction | speed MPH | gust MPH | rain 1hr in | rain 24hr in | rain mn in | humidity % | barometer mb |
| 20260506161007 | 54 | 136 | 2.0 | 3.0 | 0.00 | 0.00 | 0.00 | 9 | 981.9 |
| 20260506160506 | 53 | 114 | 1.0 | 2.0 | 0.00 | 0.00 | 0.00 | 10 | 981.6 |
| 20260506160006 | 52 | 156 | 1.0 | 2.0 | 0.00 | 0.00 | 0.00 | 9 | 981.3 |
| 20260506155005 | 53 | 158 | 2.0 | 3.0 | 0.00 | 0.00 | 0.00 | 7 | 982.2 |
| 20260506154504 | 52 | 185 | 3.0 | 4.0 | 0.00 | 0.00 | 0.00 | 8 | 981.7 |
| 20260506154004 | 51 | 185 | 2.0 | 4.0 | 0.00 | 0.00 | 0.00 | 11 | 980.5 |
| 20260506153503 | 50 | 135 | 1.0 | 2.0 | 0.00 | 0.00 | 0.00 | 10 | 980.3 |
| 20260506153003 | 49 | 224 | 2.0 | 3.0 | 0.00 | 0.00 | 0.00 | 9 | 981.3 |
| 20260506152502 | 50 | 102 | 1.0 | 2.0 | 0.00 | 0.00 | 0.00 | 9 | 981.4 |
| 20260506152007 | 50 | 228 | 2.0 | 2.0 | 0.00 | 0.00 | 0.00 | 6 | 980.7 |
| 20260506151507 | 50 | 152 | 3.0 | 4.0 | 0.00 | 0.00 | 0.00 | 4 | 981.5 |
| 20260506151006 | 49 | 160 | 2.0 | 3.0 | 0.00 | 0.00 | 0.00 | 1 | 980.4 |
| 20260506150505 | 47 | 337 | 1.0 | 3.0 | 0.00 | 0.00 | 0.00 | 1 | 980.4 |
| 20260506150005 | 48 | 168 | 1.0 | 3.0 | 0.00 | 0.00 | 0.00 | 1 | 980.8 |
| 20260506145504 | 46 | 260 | 3.0 | 5.0 | 0.00 | 0.00 | 0.00 | 1 | 981.2 |
| 20260506145003 | 45 | 323 | 4.0 | 8.0 | 0.00 | 0.00 | 0.00 | 1 | 980.2 |
| 20260506144503 | 46 | 314 | 4.0 | 5.0 | 0.00 | 0.00 | 0.00 | 1 | 980.8 |
| 20260506144008 | 45 | 193 | 1.0 | 3.0 | 0.00 | 0.00 | 0.00 | 1 | 979.3 |
| 20260506143507 | 43 | 323 | 5.0 | 7.0 | 0.00 | 0.00 | 0.00 | 1 | 980.1 |
| 20260506143007 | 41 | 324 | 7.0 | 9.0 | 0.00 | 0.00 | 0.00 | 1 | 980.4 |
| 20260506142506 | 41 | 302 | 8.0 | 11.0 | 0.00 | 0.00 | 0.00 | 1 | 980.1 |
| 20260506141505 | 41 | 298 | 7.0 | 9.0 | 0.00 | 0.00 | 0.00 | 1 | 979.6 |
| 20260506141005 | 40 | 298 | 8.0 | 10.0 | 0.00 | 0.00 | 0.00 | 1 | 981.4 |
| 20260506140504 | 41 | 300 | 7.0 | 9.0 | 0.00 | 0.00 | 0.00 | 1 | 980.3 |
| 20260506140009 | 41 | 295 | 5.0 | 7.0 | 0.00 | 0.00 | 0.00 | 1 | 979.6 |
| 20260506135008 | 42 | 266 | 6.0 | 7.0 | 0.00 | 0.00 | 0.00 | 1 | 979.5 |
| 20260506134507 | 42 | 266 | 4.0 | 5.0 | 0.00 | 0.00 | 0.00 | 1 | 980.5 |
| 20260506134006 | 41 | 296 | 5.0 | 7.0 | 0.00 | 0.00 | 0.00 | 1 | 979.2 |
| 20260506133506 | 40 | 264 | 4.0 | 7.0 | 0.00 | 0.00 | 0.00 | 1 | 979.2 |
| 20260506133005 | 41 | 254 | 4.0 | 6.0 | 0.00 | 0.00 | 0.00 | 1 | 978.9 |
| 20260506132505 | 40 | 270 | 4.0 | 5.0 | 0.00 | 0.00 | 0.00 | 1 | 979.2 |
| 20260506132003 | 39 | 240 | 5.0 | 6.0 | 0.00 | 0.00 | 0.00 | 1 | 979.7 |
| 20260506131503 | 39 | 233 | 7.0 | 9.0 | 0.00 | 0.00 | 0.00 | 1 | 979.0 |
| 20260506131002 | 38 | 239 | 9.0 | 11.0 | 0.00 | 0.00 | 0.00 | 1 | 979.0 |
| 20260506130508 | 38 | 230 | 10.0 | 12.0 | 0.00 | 0.00 | 0.00 | 1 | 978.6 |
| 20260506130006 | 38 | 221 | 12.0 | 13.0 | 0.00 | 0.00 | 0.00 | 1 | 978.1 |
| 20260506125505 | 38 | 212 | 9.0 | 10.0 | 0.00 | 0.00 | 0.00 | 1 | 978.4 |
| 20260506125005 | 38 | 193 | 6.0 | 7.0 | 0.00 | 0.00 | 0.00 | 3 | 978.9 |
| 20260506124504 | 38 | 202 | 5.0 | 5.0 | 0.00 | 0.00 | 0.00 | 5 | 979.1 |
| 20260506124004 | 37 | 188 | 7.0 | 7.0 | 0.00 | 0.00 | 0.00 | 7 | 979.2 |
| 20260506123503 | 37 | 185 | 6.0 | 7.0 | 0.00 | 0.00 | 0.00 | 10 | 979.4 |
| 20260506123003 | 37 | 186 | 6.0 | 7.0 | 0.00 | 0.00 | 0.00 | 8 | 978.8 |
| 20260506122508 | 38 | 176 | 3.0 | 4.0 | 0.00 | 0.00 | 0.00 | 5 | 979.4 |
| 20260506122007 | 38 | 175 | 2.0 | 3.0 | 0.00 | 0.00 | 0.00 | 7 | 979.1 |
| 20260506121507 | 38 | 184 | 4.0 | 5.0 | 0.00 | 0.00 | 0.00 | 5 | 979.4 |
| 20260506121006 | 37 | 191 | 6.0 | 7.0 | 0.00 | 0.00 | 0.00 | 5 | 979.3 |
| 20260506120506 | 38 | 182 | 6.0 | 6.0 | 0.00 | 0.00 | 0.00 | 6 | 978.3 |
| 20260506120005 | 38 | 169 | 3.0 | 3.0 | 0.00 | 0.00 | 0.00 | 12 | 978.6 |
| 20260506115504 | 38 | 175 | 3.0 | 4.0 | 0.00 | 0.00 | 0.00 | 15 | 977.9 |
| 20260506115004 | 38 | 168 | 3.0 | 4.0 | 0.00 | 0.00 | 0.00 | 14 | 979.1 |
| 20260506114503 | 38 | 175 | 4.0 | 4.0 | 0.00 | 0.00 | 0.00 | 14 | 978.0 |
| 20260506114003 | 38 | 182 | 4.0 | 5.0 | 0.00 | 0.00 | 0.00 | 12 | 979.6 |
| 20260506113508 | 39 | 164 | 2.0 | 3.0 | 0.00 | 0.00 | 0.00 | 9 | 979.1 |
| 20260506112507 | 38 | 176 | 3.0 | 4.0 | 0.00 | 0.00 | 0.00 | 10 | 978.6 |
| 20260506112006 | 37 | 82 | 1.0 | 3.0 | 0.00 | 0.00 | 0.00 | 13 | 978.4 |
| 20260506111506 | 36 | 203 | 9.0 | 9.0 | 0.00 | 0.00 | 0.00 | 10 | 978.5 |
| 20260506110505 | 35 | 185 | 9.0 | 10.0 | 0.00 | 0.00 | 0.00 | 19 | 978.0 |
| 20260506110004 | 36 | 182 | 8.0 | 9.0 | 0.00 | 0.00 | 0.00 | 21 | 977.8 |
| 20260506105004 | 36 | 179 | 6.0 | 7.0 | 0.00 | 0.00 | 0.00 | 24 | 978.4 |
| 20260506104503 | 36 | 181 | 7.0 | 8.0 | 0.00 | 0.00 | 0.00 | 24 | 978.3 |
| 20260506104002 | 36 | 181 | 7.0 | 7.0 | 0.00 | 0.00 | 0.00 | 35 | 978.5 |
| 20260506103502 | 36 | 178 | 7.0 | 7.0 | 0.00 | 0.00 | 0.00 | 37 | 977.9 |
| 20260506103007 | 37 | 174 | 6.0 | 6.0 | 0.00 | 0.00 | 0.00 | 34 | 977.9 |
| 20260506102507 | 37 | 176 | 4.0 | 5.0 | 0.00 | 0.00 | 0.00 | 29 | 978.1 |
| 20260506101506 | 37 | 154 | 1.0 | 2.0 | 0.00 | 0.00 | 0.00 | 27 | 978.4 |
| 20260506101005 | 37 | 160 | 4.0 | 5.0 | 0.00 | 0.00 | 0.00 | 23 | 978.3 |
| 20260506100505 | 35 | 185 | 9.0 | 9.0 | 0.00 | 0.00 | 0.00 | 31 | 978.5 |
| 20260506095504 | 35 | 184 | 8.0 | 8.0 | 0.00 | 0.00 | 0.00 | 44 | 978.4 |
| 20260506095003 | 35 | 184 | 8.0 | 8.0 | 0.00 | 0.00 | 0.00 | 44 | 978.4 |
| 20260506094503 | 35 | 176 | 8.0 | 9.0 | 0.00 | 0.00 | 0.00 | 44 | 977.5 |
| 20260506094008 | 35 | 175 | 9.0 | 9.0 | 0.00 | 0.00 | 0.00 | 43 | 977.4 |
| 20260506093507 | 35 | 175 | 9.0 | 9.0 | 0.00 | 0.00 | 0.00 | 43 | 977.4 |
| 20260506092508 | 35 | 171 | 7.0 | 9.0 | 0.00 | 0.00 | 0.00 | 42 | 978.1 |
| 20260506092007 | 35 | 172 | 8.0 | 11.0 | 0.00 | 0.00 | 0.00 | 41 | 978.7 |
| 20260506091506 | 35 | 176 | 7.0 | 10.0 | 0.00 | 0.00 | 0.00 | 40 | 977.2 |
| 20260506091006 | 36 | 164 | 7.0 | 10.0 | 0.00 | 0.00 | 0.00 | 38 | 977.6 |
| 20260506090505 | 36 | 166 | 5.0 | 6.0 | 0.00 | 0.00 | 0.00 | 37 | 978.4 |
| 20260506090004 | 36 | 164 | 3.0 | 6.0 | 0.00 | 0.00 | 0.00 | 39 | 979.3 |
| 20260506085504 | 36 | 174 | 5.0 | 8.0 | 0.00 | 0.00 | 0.00 | 40 | 978.5 |
| 20260506085009 | 36 | 173 | 7.0 | 9.0 | 0.00 | 0.00 | 0.00 | 38 | 978.6 |
| 20260506084508 | 36 | 167 | 7.0 | 9.0 | 0.00 | 0.00 | 0.00 | 35 | 978.7 |
| 20260506084008 | 36 | 178 | 5.0 | 11.0 | 0.00 | 0.00 | 0.00 | 38 | 978.9 |
| 20260506083507 | 36 | 186 | 8.0 | 13.0 | 0.00 | 0.00 | 0.00 | 32 | 979.5 |
| 20260506081506 | 37 | 35 | 1.0 | 3.0 | 0.00 | 0.00 | 0.00 | 35 | 979.8 |
| 20260506081006 | 37 | 154 | 4.0 | 7.0 | 0.00 | 0.00 | 0.00 | 32 | 978.6 |
| 20260506080505 | 37 | 101 | 1.0 | 3.0 | 0.00 | 0.00 | 0.00 | 38 | 979.2 |
| 20260506073508 | 37 | 207 | 4.0 | 8.0 | 0.00 | 0.00 | 0.00 | 29 | 979.5 |
| 20260506072507 | 38 | 156 | 6.0 | 10.0 | 0.00 | 0.00 | 0.00 | 27 | 978.5 |
| 20260506072006 | 37 | 178 | 7.0 | 12.0 | 0.00 | 0.00 | 0.00 | 27 | 978.4 |
| 20260506071506 | 37 | 139 | 3.0 | 7.0 | 0.00 | 0.00 | 0.00 | 30 | 978.3 |
| 20260506070505 | 37 | 150 | 4.0 | 4.0 | 0.00 | 0.00 | 0.00 | 32 | 978.9 |
| 20260506062007 | 37 | 176 | 3.0 | 7.0 | 0.00 | 0.00 | 0.00 | 28 | 978.7 |
| 20260506061506 | 37 | 162 | 11.0 | 18.0 | 0.00 | 0.00 | 0.00 | 31 | 979.4 |
| 20260506061006 | 37 | 182 | 11.0 | 14.0 | 0.00 | 0.00 | 0.00 | 31 | 978.3 |
| 20260506060505 | 37 | 196 | 14.0 | 19.0 | 0.00 | 0.00 | 0.00 | 28 | 978.5 |
| 20260506051005 | 36 | 225 | 9.0 | 15.0 | 0.00 | 0.00 | 0.00 | 33 | 979.1 |
| 20260506050504 | 36 | 232 | 12.0 | 14.0 | 0.00 | 0.00 | 0.00 | 32 | 978.9 |
| 20260506045009 | 38 | 220 | 6.0 | 8.0 | 0.00 | 0.00 | 0.00 | 33 | 978.2 |
| 20260506044508 | 37 | 236 | 6.0 | 11.0 | 0.00 | 0.00 | 0.00 | 32 | 977.8 |
| 20260506044007 | 37 | 222 | 9.0 | 13.0 | 0.00 | 0.00 | 0.00 | 30 | 978.3 |
| 20260506043507 | 38 | 235 | 3.0 | 6.0 | 0.00 | 0.00 | 0.00 | 36 | 978.7 |
| 20260506043006 | 37 | 298 | 5.0 | 7.0 | 0.00 | 0.00 | 0.00 | 34 | 978.4 |
| 20260506042506 | 38 | 286 | 4.0 | 5.0 | 0.00 | 0.00 | 0.00 | 30 | 978.2 |
| 20260506042006 | 39 | 225 | 8.0 | 11.0 | 0.00 | 0.00 | 0.00 | 31 | 979.1 |
| 20260506041505 | 39 | 228 | 6.0 | 10.0 | 0.00 | 0.00 | 0.00 | 36 | 978.5 |
| 20260506041004 | 40 | 182 | 8.0 | 11.0 | 0.00 | 0.00 | 0.00 | 34 | 978.1 |
| 20260506040504 | 42 | 117 | 5.0 | 11.0 | 0.00 | 0.00 | 0.00 | 34 | 978.7 |
| 20260506040009 | 42 | 127 | 3.0 | 5.0 | 0.00 | 0.00 | 0.00 | 36 | 979.0 |
| 20260506035008 | 41 | 95 | 2.0 | 4.0 | 0.00 | 0.00 | 0.00 | 38 | 978.5 |
| 20260506034507 | 41 | 88 | 3.0 | 7.0 | 0.00 | 0.00 | 0.00 | 38 | 978.6 |
| 20260506034006 | 41 | 102 | 2.0 | 4.0 | 0.00 | 0.00 | 0.00 | 40 | 978.3 |
| 20260506033506 | 40 | 110 | 6.0 | 8.0 | 0.00 | 0.00 | 0.00 | 36 | 979.1 |
| 20260506033005 | 39 | 255 | 2.0 | 6.0 | 0.00 | 0.00 | 0.00 | 40 | 978.7 |
| 20260506032504 | 40 | 86 | 4.0 | 9.0 | 0.00 | 0.00 | 0.00 | 44 | 977.9 |
| 20260506032004 | 39 | 158 | 7.0 | 10.0 | 0.00 | 0.00 | 0.00 | 42 | 977.4 |
| 20260506031508 | 39 | 161 | 9.0 | 13.0 | 0.00 | 0.00 | 0.00 | 42 | 977.9 |
| 20260506030508 | 38 | 169 | 6.0 | 10.0 | 0.00 | 0.00 | 0.00 | 41 | 977.9 |
| 20260506030007 | 38 | 174 | 8.0 | 13.0 | 0.00 | 0.00 | 0.00 | 40 | 977.5 |
| 20260506025506 | 38 | 179 | 13.0 | 13.0 | 0.00 | 0.00 | 0.00 | 39 | 976.8 |
| 20260506025006 | 38 | 188 | 13.0 | 13.0 | 0.00 | 0.00 | 0.00 | 36 | 978.2 |
| 20260506024005 | 38 | 201 | 8.0 | 8.0 | 0.00 | 0.00 | 0.00 | 35 | 977.8 |
| 20260506023505 | 38 | 203 | 16.0 | 16.0 | 0.00 | 0.00 | 0.00 | 31 | 976.6 |
| 20260506023004 | 38 | 203 | 17.0 | 22.0 | 0.00 | 0.00 | 0.00 | 31 | 976.6 |
| 20260506022503 | 38 | 227 | 15.0 | 15.0 | 0.00 | 0.00 | 0.00 | 30 | 976.7 |
| 20260506022009 | 38 | 196 | 18.0 | 18.0 | 0.00 | 0.00 | 0.00 | 30 | 976.2 |
| 20260506021507 | 38 | 208 | 10.0 | 12.0 | 0.00 | 0.00 | 0.00 | 32 | 976.2 |
| 20260506021007 | 38 | 209 | 15.0 | 18.0 | 0.00 | 0.00 | 0.00 | 33 | 976.3 |
| 20260506020504 | 38 | 226 | 14.0 | 19.0 | 0.00 | 0.00 | 0.00 | 31 | 976.5 |
| 20260506020004 | 38 | 209 | 16.0 | 21.0 | 0.00 | 0.00 | 0.00 | 33 | 976.3 |
| 20260506015503 | 38 | 212 | 15.0 | 20.0 | 0.00 | 0.00 | 0.00 | 35 | 976.7 |
| 20260506015009 | 39 | 187 | 13.0 | 17.0 | 0.00 | 0.00 | 0.00 | 37 | 977.2 |
| 20260506014508 | 39 | 208 | 12.0 | 18.0 | 0.00 | 0.00 | 0.00 | 37 | 977.1 |
| 20260506014007 | 39 | 225 | 13.0 | 15.0 | 0.00 | 0.00 | 0.00 | 35 | 977.3 |
| 20260506013504 | 40 | 196 | 13.0 | 15.0 | 0.00 | 0.00 | 0.00 | 37 | 976.9 |
| 20260506013004 | 40 | 197 | 12.0 | 18.0 | 0.00 | 0.00 | 0.00 | 33 | 976.4 |
| 20260506012503 | 40 | 200 | 8.0 | 8.0 | 0.00 | 0.00 | 0.00 | 34 | 976.5 |
| 20260506012003 | 40 | 186 | 6.0 | 6.0 | 0.00 | 0.00 | 0.00 | 35 | 976.5 |
| 20260506011508 | 40 | 180 | 23.0 | 27.0 | 0.00 | 0.00 | 0.00 | 33 | 976.3 |
| 20260506011008 | 40 | 175 | 14.0 | 20.0 | 0.00 | 0.00 | 0.00 | 34 | 976.7 |
| 20260506010507 | 41 | 195 | 13.0 | 20.0 | 0.00 | 0.00 | 0.00 | 32 | 976.1 |
| 20260506010006 | 41 | 195 | 18.0 | 26.0 | 0.00 | 0.00 | 0.00 | 29 | 977.1 |
| 20260506005506 | 41 | 175 | 14.0 | 18.0 | 0.00 | 0.00 | 0.00 | 31 | 977.0 |
| 20260506005006 | 42 | 171 | 6.0 | 13.0 | 0.00 | 0.00 | 0.00 | 33 | 976.3 |
| 20260506004505 | 42 | 160 | 10.0 | 13.0 | 0.00 | 0.00 | 0.00 | 31 | 976.1 |
| 20260506004004 | 42 | 177 | 7.0 | 15.0 | 0.00 | 0.00 | 0.00 | 29 | 976.7 |
| 20260506003503 | 44 | 279 | 6.0 | 12.0 | 0.00 | 0.00 | 0.00 | 29 | 976.4 |
| 20260506003003 | 44 | 207 | 7.0 | 14.0 | 0.00 | 0.00 | 0.00 | 28 | 976.4 |
| 20260506002508 | 45 | 200 | 3.0 | 7.0 | 0.00 | 0.00 | 0.00 | 33 | 976.5 |
| 20260506002007 | 44 | 209 | 2.0 | 6.0 | 0.00 | 0.00 | 0.00 | 34 | 977.2 |
| 20260506001507 | 43 | 166 | 6.0 | 14.0 | 0.00 | 0.00 | 0.00 | 29 | 976.2 |
| 20260506001006 | 43 | 188 | 9.0 | 23.0 | 0.00 | 0.00 | 0.00 | 27 | 976.1 |
| 20260506000506 | 44 | 180 | 9.0 | 13.0 | 0.00 | 0.00 | 0.00 | 26 | 975.9 |
| 20260506000005 | 46 | 117 | 3.0 | 7.0 | 0.00 | 0.00 | 0.00 | 29 | 976.8 |
| 20260505235505 | 46 | 174 | 4.0 | 10.0 | 0.00 | 0.00 | 0.00 | 31 | 976.3 |
| 20260505235004 | 44 | 176 | 6.0 | 13.0 | 0.00 | 0.00 | 0.00 | 31 | 975.4 |
| 20260505234504 | 44 | 174 | 7.0 | 13.0 | 0.00 | 0.00 | 0.00 | 33 | 976.0 |
| 20260505233503 | 43 | 179 | 12.0 | 15.0 | 0.00 | 0.00 | 0.00 | 32 | 978.1 |
| 20260505233008 | 44 | 200 | 2.0 | 10.0 | 0.00 | 0.00 | 0.00 | 39 | 977.1 |
| 20260505232508 | 42 | 177 | 13.0 | 20.0 | 0.00 | 0.00 | 0.00 | 33 | 975.8 |
| 20260505232007 | 44 | 180 | 7.0 | 11.0 | 0.00 | 0.00 | 0.00 | 32 | 977.2 |
| 20260505231519 | 44 | 114 | 8.0 | 12.0 | 0.00 | 0.00 | 0.00 | 34 | 977.4 |
| 20260505231006 | 44 | 152 | 13.0 | 19.0 | 0.00 | 0.00 | 0.00 | 30 | 976.8 |
| 20260505230505 | 45 | 138 | 5.0 | 10.0 | 0.00 | 0.00 | 0.00 | 34 | 977.4 |
| 20260505230005 | 44 | 93 | 5.0 | 11.0 | 0.00 | 0.00 | 0.00 | 36 | 977.7 |
| 20260505225504 | 45 | 278 | 2.0 | 2.0 | 0.00 | 0.00 | 0.00 | 32 | 977.0 |
| 20260505225004 | 45 | 278 | 2.0 | 2.0 | 0.00 | 0.00 | 0.00 | 32 | 977.0 |
| 20260505224503 | 45 | 172 | 8.0 | 8.0 | 0.00 | 0.00 | 0.00 | 34 | 977.3 |
| 20260505224009 | 45 | 164 | 8.0 | 8.0 | 0.00 | 0.00 | 0.00 | 32 | 977.4 |
| 20260505223508 | 46 | 102 | 6.0 | 7.0 | 0.00 | 0.00 | 0.00 | 29 | 977.0 |
| 20260505223008 | 46 | 93 | 3.0 | 6.0 | 0.00 | 0.00 | 0.00 | 35 | 976.9 |
| 20260505222507 | 45 | 75 | 2.0 | 2.0 | 0.00 | 0.00 | 0.00 | 32 | 976.5 |
| 20260505222006 | 45 | 29 | 4.0 | 4.0 | 0.00 | 0.00 | 0.00 | 32 | 976.6 |
| 20260505221506 | 45 | 29 | 4.0 | 5.0 | 0.00 | 0.00 | 0.00 | 32 | 976.6 |
| 20260505221005 | 46 | 16 | 4.0 | 4.0 | 0.00 | 0.00 | 0.00 | 32 | 976.8 |
| 20260505215506 | 46 | 151 | 7.0 | 12.0 | 0.00 | 0.00 | 0.00 | 32 | 977.0 |
| 20260505215006 | 45 | 161 | 7.0 | 15.0 | 0.00 | 0.00 | 0.00 | 33 | 977.1 |
| 20260505214505 | 45 | 158 | 10.0 | 16.0 | 0.00 | 0.00 | 0.00 | 31 | 977.8 |
| 20260505214004 | 46 | 69 | 6.0 | 10.0 | 0.00 | 0.00 | 0.00 | 32 | 976.8 |
| 20260505213504 | 46 | 148 | 7.0 | 12.0 | 0.00 | 0.00 | 0.00 | 36 | 976.1 |
| 20260505213003 | 45 | 107 | 6.0 | 10.0 | 0.00 | 0.00 | 0.00 | 36 | 975.9 |
| 20260505212509 | 44 | 109 | 10.0 | 19.0 | 0.00 | 0.00 | 0.00 | 33 | 976.0 |
| 20260505212008 | 43 | 66 | 7.0 | 9.0 | 0.00 | 0.00 | 0.00 | 36 | 976.5 |
| 20260505211007 | 43 | 78 | 8.0 | 15.0 | 0.00 | 0.00 | 0.00 | 38 | 977.0 |
| 20260505210505 | 42 | 51 | 6.0 | 9.0 | 0.00 | 0.00 | 0.00 | 39 | 977.1 |
| 20260505210005 | 40 | 162 | 17.0 | 23.0 | 0.00 | 0.00 | 0.00 | 37 | 976.8 |
| 20260505205510 | 39 | 170 | 18.0 | 26.0 | 0.00 | 0.00 | 0.00 | 39 | 977.6 |
| 20260505204503 | 42 | 99 | 8.0 | 16.0 | 0.00 | 0.00 | 0.00 | 48 | 976.4 |
| 20260505204003 | 40 | 162 | 18.0 | 25.0 | 0.00 | 0.00 | 0.00 | 44 | 975.9 |
| 20260505203502 | 40 | 127 | 16.0 | 24.0 | 0.00 | 0.00 | 0.00 | 45 | 977.0 |
| 20260505203008 | 39 | 173 | 11.0 | 23.0 | 0.00 | 0.00 | 0.00 | 45 | 977.1 |
| 20260505202507 | 39 | 166 | 15.0 | 21.0 | 0.00 | 0.00 | 0.00 | 43 | 977.4 |
| 20260505202006 | 40 | 158 | 13.0 | 18.0 | 0.00 | 0.00 | 0.00 | 44 | 977.4 |
| 20260505201006 | 41 | 353 | 5.0 | 11.0 | 0.00 | 0.00 | 0.00 | 47 | 977.4 |
| 20260505200505 | 42 | 138 | 8.0 | 17.0 | 0.00 | 0.00 | 0.00 | 46 | 977.6 |
| 20260505200004 | 40 | 162 | 9.0 | 22.0 | 0.00 | 0.00 | 0.00 | 43 | 977.2 |
| 20260505195510 | 42 | 44 | 9.0 | 12.0 | 0.00 | 0.00 | 0.00 | 41 | 977.3 |
| 20260505195006 | 42 | 28 | 9.0 | 11.0 | 0.00 | 0.00 | 0.00 | 43 | 976.6 |
| 20260505194005 | 42 | 87 | 6.0 | 10.0 | 0.00 | 0.00 | 0.00 | 46 | 976.6 |
| 20260505193504 | 42 | 143 | 6.0 | 10.0 | 0.00 | 0.00 | 0.00 | 47 | 976.2 |
| 20260505193004 | 42 | 55 | 6.0 | 13.0 | 0.00 | 0.00 | 0.00 | 50 | 976.7 |
| 20260505192503 | 42 | 63 | 8.0 | 17.0 | 0.00 | 0.00 | 0.00 | 50 | 976.4 |
| 20260505192003 | 40 | 2 | 9.0 | 27.0 | 0.00 | 0.00 | 0.00 | 41 | 976.6 |
| 20260505191508 | 41 | 90 | 18.0 | 31.0 | 0.00 | 0.00 | 0.00 | 43 | 977.1 |
| 20260505191007 | 42 | 179 | 4.0 | 9.0 | 0.00 | 0.00 | 0.00 | 49 | 977.1 |
| 20260505190006 | 43 | 13 | 5.0 | 8.0 | 0.00 | 0.00 | 0.00 | 49 | 977.1 |
| 20260505185506 | 43 | 23 | 10.0 | 13.0 | 0.00 | 0.00 | 0.00 | 43 | 977.0 |
| 20260505185005 | 42 | 9 | 8.0 | 11.0 | 0.00 | 0.00 | 0.00 | 44 | 977.1 |
| 20260505184504 | 42 | 20 | 5.0 | 8.0 | 0.00 | 0.00 | 0.00 | 50 | 976.7 |
| 20260505184004 | 41 | 9 | 12.0 | 12.0 | 0.00 | 0.00 | 0.00 | 48 | 976.8 |
| 20260505183509 | 41 | 9 | 12.0 | 12.0 | 0.00 | 0.00 | 0.00 | 48 | 976.8 |
| 20260505183008 | 41 | 9 | 10.0 | 12.0 | 0.00 | 0.00 | 0.00 | 48 | 976.8 |
| 20260505182006 | 41 | 352 | 16.0 | 16.0 | 0.00 | 0.00 | 0.00 | 45 | 978.1 |
| 20260505181506 | 41 | 88 | 7.0 | 11.0 | 0.00 | 0.00 | 0.00 | 49 | 977.9 |
| 20260505180505 | 41 | 354 | 9.0 | 9.0 | 0.00 | 0.00 | 0.00 | 46 | 976.9 |
| 20260505180004 | 41 | 4 | 9.0 | 11.0 | 0.00 | 0.00 | 0.00 | 46 | 978.5 |
| 20260505175503 | 41 | 7 | 13.0 | 13.0 | 0.00 | 0.00 | 0.00 | 47 | 976.8 |
| 20260505175003 | 40 | 168 | 8.0 | 15.0 | 0.00 | 0.00 | 0.00 | 47 | 977.1 |
| 20260505174508 | 41 | 358 | 9.0 | 14.0 | 0.00 | 0.00 | 0.00 | 44 | 977.5 |
| 20260505174008 | 41 | 94 | 11.0 | 15.0 | 0.00 | 0.00 | 0.00 | 43 | 976.3 |
| 20260505173007 | 41 | 4 | 9.0 | 10.0 | 0.00 | 0.00 | 0.00 | 44 | 976.5 |
| 20260505172506 | 42 | 9 | 11.0 | 14.0 | 0.00 | 0.00 | 0.00 | 44 | 977.0 |
| 20260505172006 | 41 | 8 | 9.0 | 13.0 | 0.00 | 0.00 | 0.00 | 45 | 976.6 |
| 20260505171505 | 42 | 8 | 12.0 | 15.0 | 0.00 | 0.00 | 0.00 | 43 | 976.7 |
| 20260505171004 | 41 | 358 | 12.0 | 15.0 | 0.00 | 0.00 | 0.00 | 44 | 976.3 |
| 20260505170504 | 41 | 332 | 7.0 | 12.0 | 0.00 | 0.00 | 0.00 | 46 | 976.4 |
| 20260505170003 | 40 | 336 | 10.0 | 14.0 | 0.00 | 0.00 | 0.00 | 43 | 976.9 |
| 20260505165508 | 40 | 331 | 7.0 | 14.0 | 0.00 | 0.00 | 0.00 | 49 | 977.0 |
| 20260505165008 | 40 | 332 | 7.0 | 15.0 | 0.00 | 0.00 | 0.00 | 48 | 978.3 |
| 20260505164507 | 41 | 344 | 12.0 | 15.0 | 0.00 | 0.00 | 0.00 | 43 | 977.3 |
| 20260505163506 | 40 | 345 | 10.0 | 15.0 | 0.00 | 0.00 | 0.00 | 46 | 977.1 |
| 20260505163007 | 40 | 337 | 10.0 | 14.0 | 0.00 | 0.00 | 0.00 | 44 | 977.4 |
| 20260505162004 | 40 | 287 | 9.0 | 13.0 | 0.00 | 0.00 | 0.00 | 45 | 977.2 |
| 20260505161504 | 41 | 347 | 12.0 | 16.0 | 0.00 | 0.00 | 0.00 | 42 | 976.9 |